St. Francis, KS

11:35 PM CST on November 20, 2017 (GMT -0600)
Cheyenne County Municipal

Weather History for KSYF - August, 2013

Change the Weather History Date:

Sunday, August 18, 2013

  Actual Average Record
Temperature  
Mean Temperature 76 °F -  
Max Temperature 85 °F 89 °F 94 °F (2014)
Min Temperature 67 °F 61 °F 54 °F (2017)
Cooling Degree Days 11    
Growing Degree Days 26 (Base 50)    
Moisture  
Dew Point 62 °F    
Average Humidity 67    
Maximum Humidity 86    
Minimum Humidity 42    
Precipitation  
Precipitation 0.00 in - - ()
Sea Level Pressure  
Sea Level Pressure 30.07 in    
Wind  
Wind Speed 11 mph (SSE)    
Max Wind Speed 16 mph    
Max Gust Speed 23 mph    
Visibility 10 miles    
Events      
Averages and records for this station are not official NWS values.
T = Trace of Precipitation, MM = Missing Value Source: NWS Daily Summary

Daily Weather History Graph

Daily Weather History Graph

Search for Another Location

Airport or City:

Trip Planner

Search our weather history database for the weather conditions in past years. The results will help you decide how hot, cold, wet, or windy it might be!

Date:

Astronomy

Aug. 18, 2013 Rise Set
Actual Time 7:02 AM CDT 8:38 PM CDT
Civil Twilight 6:33 AM CDT 9:07 PM CDT
Nautical Twilight 5:59 AM CDT 9:41 PM CDT
Astronomical Twilight 5:22 AM CDT 10:18 PM CDT
Moon 6:46 PM CDT (8/18) 4:14 AM CDT (8/18)
Length of Visible Light 14h 33m
Length of Day
13h 36m
Waxing Gibbous, 92% of the Moon is Illuminated
Aug 18
Waxing Gibbous
Aug 20
Full
Aug 28
Last Quarter
Sep 5
New
Sep 12
First Quarter

Hourly Weather History & Observations

Time (CDT) Temp. Heat Index Dew Point Humidity Pressure Visibility Wind Dir Wind Speed Gust Speed Precip Events Conditions
12:15 AM 68.9 °F - 64.4 °F 86% 30.10 in 10.0 mi SSE 11.5 mph - N/A   Clear
12:35 AM 69.3 °F - 64.0 °F 83% 30.10 in 10.0 mi SSE 10.4 mph - N/A   Clear
12:55 AM 68.9 °F - 63.7 °F 83% 30.10 in 10.0 mi SSE 10.4 mph - N/A   Clear
1:15 AM 68.2 °F - 63.0 °F 83% 30.10 in 10.0 mi SSE 13.8 mph - N/A   Clear
1:35 AM 68.0 °F - 62.6 °F 83% 30.10 in 10.0 mi SSE 11.5 mph - N/A   Clear
1:55 AM 68.0 °F - 62.6 °F 83% 30.10 in 10.0 mi South 12.7 mph 17.3 mph N/A   Clear
2:15 AM 67.6 °F - 62.8 °F 84% 30.10 in 10.0 mi South 9.2 mph - N/A   Clear
2:35 AM 67.6 °F - 63.0 °F 85% 30.09 in 10.0 mi SSW 10.4 mph - N/A   Mostly Cloudy
2:55 AM 68.7 °F - 63.5 °F 83% 30.08 in 10.0 mi SSW 12.7 mph 17.3 mph N/A   Overcast
3:15 AM 69.3 °F - 63.1 °F 81% 30.09 in 10.0 mi SSW 9.2 mph - N/A   Overcast
3:35 AM 69.1 °F - 62.8 °F 80% 30.09 in 10.0 mi South 10.4 mph - N/A   Overcast
3:55 AM 69.1 °F - 62.8 °F 80% 30.08 in 10.0 mi South 12.7 mph - N/A   Overcast
4:15 AM 68.9 °F - 62.6 °F 80% 30.08 in 10.0 mi South 12.7 mph - N/A   Overcast
4:35 AM 68.9 °F - 62.6 °F 80% 30.08 in 10.0 mi South 15.0 mph 18.4 mph N/A   Overcast
4:55 AM 68.5 °F - 62.6 °F 81% 30.08 in 10.0 mi South 12.7 mph - N/A   Overcast
5:15 AM 68.4 °F - 62.4 °F 81% 30.07 in 10.0 mi South 11.5 mph 17.3 mph N/A   Overcast
5:35 AM 68.4 °F - 62.6 °F 82% 30.08 in 10.0 mi South 11.5 mph - N/A   Overcast
5:55 AM 68.4 °F - 62.6 °F 82% 30.08 in 10.0 mi South 11.5 mph - N/A   Overcast
6:15 AM 68.2 °F - 62.4 °F 82% 30.08 in 7.0 mi South 11.5 mph - N/A   Overcast
6:35 AM 68.2 °F - 62.4 °F 82% 30.08 in 7.0 mi South 10.4 mph 17.3 mph N/A   Overcast
6:55 AM 68.0 °F - 62.2 °F 82% 30.08 in 7.0 mi South 11.5 mph - N/A   Overcast
7:15 AM 68.0 °F - 62.1 °F 81% 30.09 in 7.0 mi South 11.5 mph - N/A   Overcast
7:35 AM 68.0 °F - 62.2 °F 82% 30.09 in 7.0 mi South 9.2 mph - N/A   Overcast
7:55 AM 68.4 °F - 62.4 °F 81% 30.08 in 7.0 mi SSE 9.2 mph - N/A   Overcast
8:15 AM 68.4 °F - 62.2 °F 81% 30.09 in 7.0 mi SSE 10.4 mph - N/A   Overcast
8:35 AM 68.5 °F - 62.2 °F 80% 30.09 in 7.0 mi SSE 11.5 mph - N/A   Overcast
8:55 AM 68.9 °F - 62.1 °F 79% 30.09 in 7.0 mi SSE 9.2 mph - N/A   Overcast
9:15 AM 69.1 °F - 61.9 °F 78% 30.09 in 7.0 mi South 11.5 mph - N/A   Overcast
9:35 AM 69.8 °F - 61.7 °F 75% 30.09 in 7.0 mi South 11.5 mph 16.1 mph N/A   Overcast
9:55 AM 70.0 °F - 61.5 °F 74% 30.09 in 7.0 mi South 10.4 mph - N/A   Overcast
10:15 AM 70.0 °F - 61.5 °F 74% 30.09 in 7.0 mi South 9.2 mph - N/A   Overcast
10:35 AM 70.7 °F - 61.2 °F 72% 30.10 in 10.0 mi South 11.5 mph - N/A   Overcast
10:55 AM 70.9 °F - 61.3 °F 72% 30.10 in 10.0 mi South 10.4 mph - N/A   Overcast
11:15 AM 71.6 °F - 61.3 °F 70% 30.10 in 10.0 mi SSE 8.1 mph - N/A   Overcast
11:35 AM 72.3 °F - 61.2 °F 68% 30.10 in 10.0 mi SSE 6.9 mph - N/A   Overcast
11:55 AM 72.7 °F - 61.0 °F 67% 30.10 in 10.0 mi SSE 8.1 mph - N/A   Overcast
12:15 PM 74.1 °F - 61.2 °F 64% 30.10 in 10.0 mi SSE 9.2 mph - N/A   Overcast
12:35 PM 75.6 °F - 61.0 °F 60% 30.10 in 10.0 mi South 9.2 mph - N/A   Overcast
12:55 PM 76.3 °F - 61.0 °F 59% 30.09 in 10.0 mi South 10.4 mph 16.1 mph N/A   Scattered Clouds
1:15 PM 78.3 °F - 60.8 °F 55% 30.08 in 10.0 mi SSE 11.5 mph 16.1 mph N/A   Clear
1:35 PM 79.7 °F - 60.8 °F 52% 30.08 in 10.0 mi SSE 9.2 mph 16.1 mph N/A   Clear
1:55 PM 81.1 °F 81.9 °F 60.6 °F 50% 30.07 in 10.0 mi SE 13.8 mph 17.3 mph N/A   Clear
2:15 PM 81.7 °F 82.3 °F 60.8 °F 49% 30.07 in 10.0 mi SSE 11.5 mph 17.3 mph N/A   Clear
2:35 PM 82.8 °F 83.1 °F 60.6 °F 47% 30.06 in 10.0 mi SSE 15.0 mph 20.7 mph N/A   Clear
2:55 PM 82.2 °F 82.7 °F 60.6 °F 48% 30.06 in 10.0 mi SSE 16.1 mph 19.6 mph N/A   Clear
3:15 PM 83.3 °F 83.5 °F 60.6 °F 46% 30.06 in 10.0 mi SSE 15.0 mph 19.6 mph N/A   Clear
3:35 PM 83.5 °F 83.7 °F 60.6 °F 46% 30.05 in 10.0 mi SSE 15.0 mph 19.6 mph N/A   Clear
3:55 PM 84.4 °F 84.4 °F 60.4 °F 44% 30.04 in 10.0 mi SSE 15.0 mph 20.7 mph N/A   Clear
4:15 PM 84.6 °F 84.6 °F 60.3 °F 44% 30.03 in 10.0 mi SSE 13.8 mph 19.6 mph N/A   Clear
4:35 PM 85.1 °F 85.0 °F 60.3 °F 43% 30.03 in 10.0 mi SE 13.8 mph - N/A   Clear
4:55 PM 85.3 °F 85.0 °F 60.1 °F 42% 30.03 in 10.0 mi SSE 15.0 mph 20.7 mph N/A   Clear
5:15 PM 85.1 °F 84.8 °F 59.9 °F 42% 30.03 in 10.0 mi SSE 15.0 mph - N/A   Clear
5:35 PM 85.6 °F 85.4 °F 60.3 °F 42% 30.02 in 10.0 mi South 16.1 mph 20.7 mph N/A   Clear
5:55 PM 85.1 °F 85.2 °F 61.0 °F 44% 30.02 in 10.0 mi SSE 12.7 mph 21.9 mph N/A   Clear
6:15 PM 85.1 °F 85.4 °F 61.3 °F 45% 30.02 in 10.0 mi SSE 15.0 mph - N/A   Clear
6:35 PM 84.6 °F 84.8 °F 61.3 °F 45% 30.02 in 10.0 mi SSE 15.0 mph 21.9 mph N/A   Clear
6:55 PM 84.4 °F 84.6 °F 61.2 °F 45% 30.01 in 10.0 mi SSE 15.0 mph 23.0 mph N/A   Clear
7:15 PM 82.4 °F 83.0 °F 61.7 °F 49% 30.02 in 10.0 mi SSE 15.0 mph 18.4 mph N/A   Clear
7:35 PM 81.1 °F 82.1 °F 62.2 °F 52% 30.03 in 10.0 mi SSE 11.5 mph - N/A   Clear
7:55 PM 80.6 °F 81.8 °F 62.4 °F 54% 30.05 in 10.0 mi SSE 10.4 mph - N/A   Clear
8:15 PM 79.2 °F - 62.6 °F 57% 30.06 in 10.0 mi SSE 6.9 mph - N/A   Clear
8:35 PM 77.7 °F - 62.6 °F 60% 30.06 in 10.0 mi SE 5.8 mph - N/A   Clear
8:55 PM 77.0 °F - 62.8 °F 61% 30.06 in 10.0 mi SSE 9.2 mph - N/A   Clear
9:15 PM 76.5 °F - 62.6 °F 62% 30.07 in 10.0 mi SSE 6.9 mph - N/A   Clear
9:35 PM 76.3 °F - 62.8 °F 63% 30.07 in 10.0 mi SSE 11.5 mph - N/A   Clear
9:55 PM 75.9 °F - 63.0 °F 64% 30.08 in 10.0 mi SE 10.4 mph - N/A   Clear
10:15 PM 75.6 °F - 63.0 °F 65% 30.09 in 10.0 mi SE 9.2 mph - N/A   Clear
10:35 PM 74.3 °F - 63.0 °F 68% 30.10 in 10.0 mi SE 9.2 mph - N/A   Clear
10:55 PM 73.8 °F - 63.1 °F 69% 30.10 in 10.0 mi ESE 9.2 mph - N/A   Clear
11:15 PM 72.7 °F - 63.1 °F 72% 30.10 in 10.0 mi ESE 9.2 mph - N/A   Clear
11:35 PM 71.6 °F - 63.0 °F 74% 30.10 in 10.0 mi SE 9.2 mph - N/A   Clear
11:55 PM 71.1 °F - 63.1 °F 76% 30.09 in 10.0 mi SSE 13.8 mph 17.3 mph N/A   Clear